Address 0xc98834f2de2eb9c97ffbdf2e4952535d2d4bc1a1 6

 
 
Txn Hash Method
Block
From
To
Value [Txn Fee]
0x1493f757f311286b9a2be1033f401a2ef4bf18f306753d4dff1baefa529041e2Create Auction124691582021-11-08 8:30:4626 days 20 hrs ago0xc98834f2de2eb9c97ffbdf2e4952535d2d4bc1a1OUT 0x7b1ac460c155abb6b1d02b543952426a6aaf6b720 BNB0.00129659
0xd7be3b05bd306fc28e5b41e99a587ef07cdfa344ed94c18fc8d9dc3568ee980eApprove124691502021-11-08 8:30:2226 days 20 hrs ago0xc98834f2de2eb9c97ffbdf2e4952535d2d4bc1a1OUT OpenBiSea: ABSNFT Token0 BNB0.000255015
0x18c2d13279dc9a295d3683a745164c9afc686a129a2a822b1c7f4d6133e5be83Create Auction124691182021-11-08 8:28:4626 days 21 hrs ago0xc98834f2de2eb9c97ffbdf2e4952535d2d4bc1a1OUT 0x7b1ac460c155abb6b1d02b543952426a6aaf6b720 BNB0.00143471
0xed60bcc0651b6538ab53bc8a8777111dd8d97502259f1f98da113282068cc42aApprove124691122021-11-08 8:28:2826 days 21 hrs ago0xc98834f2de2eb9c97ffbdf2e4952535d2d4bc1a1OUT OpenBiSea: ABSNFT Token0 BNB0.000255015
0xecff47a955b7a862ee952a69d9690613172bb79b85db1aa6b2203b6c937b7506Create Auction124691052021-11-08 8:28:0726 days 21 hrs ago0xc98834f2de2eb9c97ffbdf2e4952535d2d4bc1a1OUT 0x7b1ac460c155abb6b1d02b543952426a6aaf6b720 BNB0.00133859
0x9edeb7d99ae511eb03725fc93d2533c1b8d140b4d48b9aaf4a0b6188fddbce17Approve124690982021-11-08 8:27:4626 days 21 hrs ago0xc98834f2de2eb9c97ffbdf2e4952535d2d4bc1a1OUT OpenBiSea: ABSNFT Token0 BNB0.000255015
0x387a40865258080e811d9bfa240d3f076335fde4e860d18cf8831eb60d5284d5Cancel Auction120730322021-10-25 8:04:1040 days 21 hrs ago0xc98834f2de2eb9c97ffbdf2e4952535d2d4bc1a1OUT 0x7b1ac460c155abb6b1d02b543952426a6aaf6b720 BNB0.00054589
0xab9d4449335a9bb5faf360e8b390b5df82d8e0f0afbc61e1814617a2fae0854cCancel Auction120730292021-10-25 8:04:0140 days 21 hrs ago0xc98834f2de2eb9c97ffbdf2e4952535d2d4bc1a1OUT 0x7b1ac460c155abb6b1d02b543952426a6aaf6b720 BNB0.00054589
0xb77beff492bd029cca9f74715da4a64b846420a4eb86dc4e8e5669b5e51ac7abCancel Auction120730252021-10-25 8:03:4940 days 21 hrs ago0xc98834f2de2eb9c97ffbdf2e4952535d2d4bc1a1OUT 0x7b1ac460c155abb6b1d02b543952426a6aaf6b720 BNB0.00053539
0x6111bdbde4567ae9dd2bc8ee8542808b5d4ea86b8468cb613d121d6c29b1a90aCancel Auction120730202021-10-25 8:03:3440 days 21 hrs ago0xc98834f2de2eb9c97ffbdf2e4952535d2d4bc1a1OUT 0x7b1ac460c155abb6b1d02b543952426a6aaf6b720 BNB0.00053539
0x863a2c44493002f3c0f34cb38b60deb3a94057c8b48120438228de1ee6e3dd1fCancel Auction119311482021-10-20 8:04:5045 days 21 hrs ago0xc98834f2de2eb9c97ffbdf2e4952535d2d4bc1a1OUT 0x7b1ac460c155abb6b1d02b543952426a6aaf6b720 BNB0.00054589
0xc14dc3ce86af92487789aaee32bc870f0cbb3a627e0b20a1fc366fd65e2733bfBid111885362021-09-24 8:18:3171 days 21 hrs ago0xc98834f2de2eb9c97ffbdf2e4952535d2d4bc1a1OUT 0x7b1ac460c155abb6b1d02b543952426a6aaf6b7221 wei0.000476435
0xb7301891c5204e9a8d3438b620baa83735e31f79dae04f551222e6beeb273f0bCreate Auction111878442021-09-24 7:43:3971 days 21 hrs ago0xc98834f2de2eb9c97ffbdf2e4952535d2d4bc1a1OUT 0x7b1ac460c155abb6b1d02b543952426a6aaf6b720 BNB0.00139247
0x1a59e4e051ec10d1fbfa8aa823749c9fcc2f2fd32e89f7d325df23462b0feb7cApprove111878382021-09-24 7:43:2171 days 21 hrs ago0xc98834f2de2eb9c97ffbdf2e4952535d2d4bc1a1OUT OpenBiSea: ABSNFT Token0 BNB0.000255015
0x3ef04c997e5e5184006fd5385b0d339fe86ef8787ce377daa9df6be0d733a97eCreate Auction111872582021-09-24 7:14:2171 days 22 hrs ago0xc98834f2de2eb9c97ffbdf2e4952535d2d4bc1a1OUT 0x7b1ac460c155abb6b1d02b543952426a6aaf6b720 BNB0.00143447
0x26334797f88023b2f82c95693703e210f24b4f79d798cd0b487fe5094f4390a8Approve111872512021-09-24 7:14:0071 days 22 hrs ago0xc98834f2de2eb9c97ffbdf2e4952535d2d4bc1a1OUT OpenBiSea: ABSNFT Token0 BNB0.000255015
0xe8e8f16029b037b6c4dd5433ebd7a5a4c8241ecec79634ad8c8b3dd8dbb1a670Mint111705662021-09-23 17:18:3872 days 12 hrs ago0xc98834f2de2eb9c97ffbdf2e4952535d2d4bc1a1OUT OpenBiSea: ABSNFT Token0 BNB0.001061725
0x438f27ad96b5d80c1eca3d5b62df844db10d2bc8f00ce9b0e4e3e696fc9edf60Bid111597852021-09-23 8:12:5772 days 21 hrs ago0xc98834f2de2eb9c97ffbdf2e4952535d2d4bc1a1OUT 0x7b1ac460c155abb6b1d02b543952426a6aaf6b721 wei0.00063879
0x49167adc600866ee0d83d08f82aaf2094dead51fc2a27d1ac7a2f4265655e1a7Create Auction104164262021-08-28 7:48:2398 days 21 hrs ago0xc98834f2de2eb9c97ffbdf2e4952535d2d4bc1a1OUT 0x7b1ac460c155abb6b1d02b543952426a6aaf6b720 BNB0.00133859
0x720094744f62d699f09bb5a9e8365c712317a402725d47c95f0d1c3f8e90d76eApprove104164262021-08-28 7:48:2398 days 21 hrs ago0xc98834f2de2eb9c97ffbdf2e4952535d2d4bc1a1OUT OpenBiSea: ABSNFT Token0 BNB0.000255015
0x0d606893765c1b5f22af4b0efad09df668596140c33c2bfe5680afae556c2d15Mint104163722021-08-28 7:45:4198 days 21 hrs ago0xc98834f2de2eb9c97ffbdf2e4952535d2d4bc1a1OUT OpenBiSea: ABSNFT Token0 BNB0.001061725
0x857351522c30bf62192f838326a06fc861208eb433e79d0f183513f6b7bbbde7Create Auction104163062021-08-28 7:42:2198 days 21 hrs ago0xc98834f2de2eb9c97ffbdf2e4952535d2d4bc1a1OUT 0x7b1ac460c155abb6b1d02b543952426a6aaf6b720 BNB0.00133859
0x15df7227633607371750eec97025c36b7f2d45afc27eff9487ce63bc212ce3daApprove104163062021-08-28 7:42:2198 days 21 hrs ago0xc98834f2de2eb9c97ffbdf2e4952535d2d4bc1a1OUT OpenBiSea: ABSNFT Token0 BNB0.000159015
0xe5e8cd0b3b2079e9d06fe126daff1a74c9705deed8bf464187d9284c1ffc4001Create Auction104162572021-08-28 7:39:3198 days 21 hrs ago0xc98834f2de2eb9c97ffbdf2e4952535d2d4bc1a1OUT 0x7b1ac460c155abb6b1d02b543952426a6aaf6b720 BNB0.00139265
0xf5669bc8d0cf17340e4f59d483f232a7aba716a1342b80d6c1661d57f3a033e9Approve104162492021-08-28 7:39:0798 days 21 hrs ago0xc98834f2de2eb9c97ffbdf2e4952535d2d4bc1a1OUT OpenBiSea: ABSNFT Token0 BNB0.000255015
[ Download CSV Export 
Latest 5 internal transactions
Parent Txn Hash Block From To Value
0xc14dc3ce86af92487789aaee32bc870f0cbb3a627e0b20a1fc366fd65e2733bf111885362021-09-24 8:18:3171 days 21 hrs ago 0x7b1ac460c155abb6b1d02b543952426a6aaf6b720xc98834f2de2eb9c97ffbdf2e4952535d2d4bc1a121 wei
0x1bfd5dfdeda38636e81d65d118eed3ef7064dc403a3536617f0c61d63f3bbee097866072021-08-06 3:32:39121 days 1 hr ago 0x7b1ac460c155abb6b1d02b543952426a6aaf6b720xc98834f2de2eb9c97ffbdf2e4952535d2d4bc1a10.000095000000000001 BNB
0x8b25bc448837d63e369d6b25d7e910f9bd5f83557b26626247413c8cafe8a9ea97768222021-08-05 19:12:44121 days 10 hrs ago 0x7b1ac460c155abb6b1d02b543952426a6aaf6b720xc98834f2de2eb9c97ffbdf2e4952535d2d4bc1a10.0009595 BNB
0x36a900012aa52e89ae453c78a561fb9194d7ea94fe2c153384ca3775210c52d680289132021-06-05 10:03:42182 days 19 hrs ago BSC: Token Hub0xc98834f2de2eb9c97ffbdf2e4952535d2d4bc1a10.0001 BNB
0x572e6ee4f06f55a3c91b56c335a5003de6b50f6e4818bf44a6063dc0c05ec0ba73434292021-05-12 9:39:46206 days 19 hrs ago OpenBiSea0xc98834f2de2eb9c97ffbdf2e4952535d2d4bc1a10.01001 BNB
[ Download CSV Export 
Loading

Contract Name:
0 BNB

Compiler Version
0

Optimization Enabled:
0 BNB

Other Settings:
-NA-
Block Transaction Gas Used Reward
Age Block Fee Address BC Fee Address Voting Power Jailed Incoming
Block Uncle Number Difficulty Gas Used Reward
Loading
Loading
Make sure to use the "Vote Down" button for any spammy posts, and the "Vote Up" for interesting conversations.